www.pogodaiklimat.ru
ПОГОДА в Витория-Гастейсе
Время
(UTC), дата
04 31.05
05 31.05
06 31.05
07 31.05
08 31.05
09 31.05
10 31.05
11 31.05
12 31.05
13 31.05
14 31.05
15 31.05
16 31.05
17 31.05
18 31.05
19 31.05
20 31.05
21 31.05
22 31.05
23 31.05
00 1.06
01 1.06
02 1.06
03 1.06
04 1.06
05 1.06
06 1.06
07 1.06
08 1.06
09 1.06
10 1.06
11 1.06
12 1.06
13 1.06
14 1.06
15 1.06
16 1.06
17 1.06
18 1.06
19 1.06
20 1.06
21 1.06
22 1.06
23 1.06
00 2.06
01 2.06
02 2.06
03 2.06
04 2.06
05 2.06
06 2.06
07 2.06
08 2.06
09 2.06
10 2.06
11 2.06
12 2.06
13 2.06
14 2.06
15 2.06
16 2.06
17 2.06
18 2.06
19 2.06
20 2.06
21 2.06
22 2.06
23 2.06
00 3.06
01 3.06
02 3.06
03 3.06
04 3.06
05 3.06
06 3.06
07 3.06
08 3.06
09 3.06
10 3.06
11 3.06
12 3.06
13 3.06
14 3.06
15 3.06
16 3.06
17 3.06
18 3.06
19 3.06
20 3.06
21 3.06
22 3.06
23 3.06
00 4.06
01 4.06
02 4.06
03 4.06
04 4.06
05 4.06
06 4.06
07 4.06
08 4.06
09 4.06
10 4.06
11 4.06
12 4.06
13 4.06
14 4.06
15 4.06
16 4.06
17 4.06
18 4.06
19 4.06
20 4.06
21 4.06
22 4.06
23 4.06
00 5.06
01 5.06
02 5.06
03 5.06
04 5.06
05 5.06
06 5.06
07 5.06
08 5.06
09 5.06
10 5.06
11 5.06
12 5.06
13 5.06
14 5.06
15 5.06
16 5.06
17 5.06
18 5.06
19 5.06
20 5.06
21 5.06
22 5.06
23 5.06
00 6.06
01 6.06
02 6.06
03 6.06
04 6.06
05 6.06
06 6.06
07 6.06
08 6.06
09 6.06
10 6.06
11 6.06
12 6.06
13 6.06
14 6.06
15 6.06
16 6.06
17 6.06
18 6.06
19 6.06
20 6.06
21 6.06
22 6.06
23 6.06
00 7.06
01 7.06
02 7.06
Ветер
(напр.,м/с)
Видим. Явления Облачность Т
(С)
Тd
(С)
f
(%)
Тe
(С)
Тes
(С)
Комфортность P
(гПа)
Po
(гПа)
Тmin
(С)
Tmax
(С)
R
(мм)
R24
(мм)
S
(см)
штиль 0 н/о н/о +11.7 +10.9 95 +11 +11 1012.4 953.0
штиль 0 н/о н/о +11.7 +11.2 97 +11 +11 1012.6 953.2
ЮЗ 1 25 км 3/3
[Cu hum Ci]
+14.6 +14.0 96 +15 +16 1012.4 953.6 +11.4
В 1 н/о н/о +19.3 +15.8 80 +22 +22 комфорт 1011.3 953.6
СВ 1 н/о н/о +20.8 +14.8 69 +25 +25 комфорт 1011.2 953.7
ЮЗ 4 25 км 6/3 2000 м
[Cu Sc Cs]
+22.1 +15.3 65 +26 +31 душно 1010.9 953.7
Ю 2 н/о н/о +23.5 +15.1 59 +26 +26 жарко 1010.6 953.7
З 3 н/о н/о +25.3 +17.2 61 +29 +29 душно 1010.1 953.6
ЮЗ 4 15 км туман на расстоянии {гроза} 10/10 1000 м
[]
+20.7 +18.4 87 +25 +26 комфорт 1010.6 953.2 0.0
Ю 2 20 км в посл. час ливневой дождь {гроза} 10/10 1500 м
[Cb calv Ac inh Ci sp]
+22.1 +18.9 82 +27 +27 душно 1010.3 953.2
ЮЗ 4 н/о н/о +21.1 +17.4 79 +25 +25 комфорт 1011.4 954.0
В 1 20 км в посл. час ливневой дождь 10/3 1500 м
[Cu med, cong Ac As Cs]
+21.0 +18.8 87 +27 +32 душно 1010.9 953.6 3
ЮЗ 2 н/о н/о +23.2 +17.9 72 +29 +29 душно 1010.0 953.1
ЮЗ 2 н/о н/о +24.3 +17.5 66 +28 +28 душно 1009.0 952.4
ЮЗ 2 20 км {ливн. осадки, дождь} 10/3 1000 м
[Cu med, cong Ac und Cs]
+22.8 +17.7 73 +28 +29 душно 1009.7 952.8 +25.8
СВ 3 н/о н/о +20.7 +17.3 81 +25 +25 комфорт 1010.7 953.3
В 4 н/о н/о +18.7 +15.9 84 +20 +20 1011.8 953.9
В 2 10 км 10/1 1500 м
[Cu hum Ac und Cs]
+18.0 +16.7 92 +19 +19 1012.8 954.7
З 1 н/о н/о +17.5 +16.5 94 +19 +19 1013.3 955.1
СВ 1 н/о н/о +17.0 +14.5 85 +18 +18 1013.4 955.1
ЮЗ 1 10 км 8/3 1000 м
[Cu med, cong Cs]
+16.2 +14.4 89 +17 +17 1013.8 955.3
Ю 3 н/о н/о +16.6 +13.7 83 +16 +16 1013.3 954.9
Ю 1 н/о н/о +16.1 +12.8 81 +17 +17 1012.7 954.2
З 1 10 км 6/1 1500 м
[Sc Cs]
+13.6 +12.2 91 +15 +15 1013.1 954.1
З 2 н/о н/о +13.4 +12.5 94 +13 +13 1013.9 954.8
З 3 н/о н/о +15.1 +13.6 91 +15 +15 1014.3 955.5
З 2 20 км 9/1 300 м
[St Ac As]
+16.0 +14.2 89 +16 +17 1014.3 955.7 +13.0 2.7
ЮЗ 1 20 км 9/3 300 м
[Cu med, cong Ac As]
+17.6 +14.4 82 +19 +21 1014.2 955.9
ЮЗ 3 н/о н/о +18.8 +14.7 77 +20 +20 1014.4 956.4
ЮЗ 4 25 км 8/1 600 м
[Cu hum Ac trans Cs]
+20.5 +15.1 71 +23 +27 комфорт 1014.0 956.3
Ю 2 н/о н/о +22.8 +15.6 64 +27 +27 душно 1013.6 956.4
ЮЗ 3 н/о н/о +24.7 +15.2 55 +28 +28 душно 1013.1 956.3
СВ 2 25 км 8/5 1500 м
[Cu Sc Ac cuf Cs]
+25.4 +15.2 53 +28 +36 жарко 1012.9 956.2
СЗ 1 25 км 6/6 1000 м
[Cu med, cong Ac cuf]
+27.3 +16.4 51 +31 +40 душно 1012.3 956.0
В 2 н/о н/о +27.6 +14.9 46 +30 +30 жарко 1012.1 955.8
С 3 25 км 6/6 1000 м
[Cu med, cong]
+27.0 +16.8 54 +31 +35 душно 1011.8 955.5
СВ 4 н/о н/о +26.9 +17.2 55 +31 +31 душно 1011.7 955.4
С 4 н/о н/о +24.8 +16.8 61 +28 +28 жарко 1012.1 955.4
СВ 5 25 км 8/3 1000 м
[Cu med, cong Cs]
+23.8 +17.1 66 +28 +28 душно 1012.7 955.8 +28.2
СВ 4 н/о в посл. час осадки н/о +21.1 +16.1 73 +24 +24 комфорт 1014.0 956.5
СВ 4 н/о н/о +18.9 +15.0 78 +20 +20 1015.2 957.1
СВ 3 20 км 8/0
[Ac cuf Cs]
+16.1 +14.6 91 +16 +16 1016.6 957.9 0.0
С 1 н/о н/о +15.4 +14.1 92 +16 +16 1017.2 958.3
ЮВ 1 н/о н/о +14.3 +13.3 94 +15 +15 1017.4 958.3
С 2 20 км 9/0 1500 м
[Ac cuf Cs]
+13.0 +12.2 95 +12 +12 1017.4 958.0
штиль 0 н/о н/о +12.3 +11.5 95 +12 +12 1017.3 957.7
штиль 0 н/о н/о +11.5 +10.9 96 +11 +11 1017.0 957.3
штиль 0 15 км 4/0
[Ac trans Cs]
+11.1 +10.6 97 +10 +10 1017.0 957.2
С 1 н/о н/о +10.3 +9.8 97 +10 +10 1017.3 957.3
З 1 н/о н/о +10.7 +10.2 97 +10 +10 1017.5 957.6
ЮВ 1 15 км 8/0
[Ac und Cs]
+13.1 +12.0 93 +13 +14 1017.0 957.6 +10.3 0.0
СЗ 1 15 км 8/1 1000 м
[Cu hum Ac und Cs]
+16.1 +13.8 86 +17 +19 1016.4 957.7
штиль 0 н/о н/о +19.4 +14.9 75 +21 +21 комфорт 1015.6 957.6
СЗ 1 20 км 9/1 1000 м
[Cu hum Cs]
+22.8 +15.0 61 +27 +37 душно 1014.5 957.2
ЮВ 1 н/о н/о +24.5 +14.6 54 +27 +27 жарко 1014.0 957.1
В 1 н/о н/о +25.6 +13.9 48 +28 +28 жарко 1013.1 956.4
Ю 1 20 км 10/3 600 м
[Cu hum Cs]
+26.8 +12.4 41 +28 +41 жарко 1012.7 956.2
Ю 2 20 км 10/3 600 м
[Cu med, cong As op Cs]
+27.0 +13.8 44 +29 +36 жарко 1012.3 955.9
З 2 н/о н/о +26.2 +15.2 51 +29 +29 жарко 1012.1 955.6
ЮЗ 2 20 км 10/3 600 м
[Cu med, cong As op Cs]
+26.2 +15.4 51 +29 +34 жарко 1011.8 955.3
СВ 4 н/о н/о +25.8 +18.0 62 +30 +30 душно 1011.5 955.0
С 5 н/о н/о +24.1 +18.3 70 +29 +29 душно 1011.5 954.7
С 5 15 км 9/1 1000 м
[Sc diur, vesp Ac As Cs]
+23.0 +17.1 69 +28 +28 душно 1011.3 954.3 +27.6
СВ 4 н/о н/о +20.8 +17.1 79 +25 +25 комфорт 1012.1 954.6
З 1 н/о н/о +20.0 +15.4 75 +23 +23 комфорт 1012.9 955.2
СЗ 4 15 км 9/1 600 м
[St Ac As Cs]
+18.8 +15.7 82 +20 +20 1013.8 955.8
З 1 н/о н/о +17.8 +15.4 86 +19 +19 1013.9 955.7
В 3 н/о н/о +16.5 +15.4 93 +16 +16 1013.7 955.3
СВ 3 6000 м дымка 6/1 1000 м
[Sc Ac As Cs]
+16.5 +15.5 94 +16 +16 1013.6 955.2
С 2 н/о н/о +16.7 +15.2 91 +17 +17 1012.7 954.4
З 1 н/о н/о +16.2 +15.1 93 +17 +17 1012.1 953.7
СВ 1 6000 м дымка 9/3 300 м
[Sc Ac As]
+15.8 +15.2 96 +16 +16 1011.2 952.8
З 2 н/о н/о +16.1 +15.5 96 +16 +16 1011.1 952.7
З 2 н/о осадки н/о +16.4 +15.7 96 +17 +17 1010.9 952.6
Ю 2 2600 м слаб. дождь {туман} 10/9 200 м
[St Ac As]
+16.3 +15.8 97 +17 +17 1010.9 952.6 +15.7 2 1.7
З 1 5000 м дымка {дождь, туман} 10/10 300 м
[St]
+17.3 +15.8 91 +19 +19 1010.7 952.6
В 1 н/о н/о +18.3 +16.4 89 +20 +20 1010.4 952.5
СВ 2 8000 м дымка {гроза} 9/3 300 м
[Sc Ac As]
+19.2 +16.3 83 +22 +25 комфорт 1009.4 951.8 0.0
З 2 н/о н/о +19.4 +15.8 80 +22 +22 комфорт 1009.3 951.7
СЗ 3 н/о н/о +19.3 +14.8 75 +21 +21 комфорт 1009.2 951.6
СВ 4 10 км 8/4 1500 м
[Sc Ac As]
+21.0 +15.2 69 +24 +28 комфорт 1007.9 950.7
В 4 9000 м 8/3 1000 м
[Cu Sc Ac As Cs]
+21.9 +13.9 60 +25 +31 комфорт 1007.2 950.1
С 4 н/о н/о +19.5 +14.9 75 +21 +21 комфорт 1007.7 950.2
С 3 7000 м дымка {дождь} 10/8 300 м
[Frnb Ac As]
+17.0 +14.5 85 +17 +17 1008.5 950.4 0.2
С 2 н/о осадки н/о +16.4 +14.8 90 +16 +16 1008.6 950.4
СВ 3 н/о осадки н/о +16.6 +14.9 90 +16 +16 1008.3 950.2
В 1 9000 м дымка 10/5 2000 м
[Sc Ac As]
+16.6 +14.8 89 +17 +18 1007.9 949.8 +22.0 0.5
ЮВ 1 н/о н/о +17.1 +14.3 84 +19 +19 1007.6 949.6
СЗ 3 н/о н/о +15.5 +13.5 88 +15 +15 1007.7 949.4
СЗ 2 10 км 6/4 600 м
[Sc Ac As Cs]
+14.8 +12.1 84 +14 +14 1008.4 949.9
СЗ 3 н/о н/о +13.7 +11.2 85 +12 +12 1008.8 950.0
З 2 н/о н/о +11.7 +10.8 94 +11 +11 1008.9 949.7
ЮЗ 2 10 км 9/4 1000 м
[Sc Ac As Cs]
+10.3 +9.4 94 +9 +9 1008.8 949.3
ЮЗ 2 н/о н/о +9.7 +9.1 96 +8 +8 1008.1 948.5
З 1 н/о н/о +9.1 +8.6 97 +8 +8 1007.6 947.9
З 2 8000 м дымка 6/3 1000 м
[Sc Ac As Cs]
+8.6 +8.2 97 +7 +7 1007.3 947.5
штиль 0 н/о н/о +7.6 +7.2 97 +7 +7 1007.2 947.2
СЗ 1 н/о н/о +8.4 +8.2 99 +8 +8 1006.9 947.1
Ю 1 15 км 8/6 600 м
[Sc Ac und]
+9.6 +9.3 98 +10 +10 1006.5 947.0 +7.5 0.7
С 2 15 км 8/5 300 м
[Sc Ac und]
+11.8 +10.5 92 +11 +12 1006.4 947.4
СЗ 3 н/о н/о +12.6 +9.8 83 +11 +11 1006.9 948.0
СЗ 4 25 км 8/6 600 м
[Cu Sc Ac und]
+14.1 +9.6 74 +13 +15 1006.7 948.1
СЗ 7 н/о н/о +16.0 +9.2 64 +15 +15 1006.3 948.1
СЗ 7 н/о н/о +17.6 +10.3 62 +17 +17 1006.2 948.3
З 7 20 км 6/4 600 м
[Cu Sc Ac und]
+17.2 +10.7 66 +16 +19 1006.3 948.3
СЗ 6 20 км 9/8 600 м
[Cu Sc Ac und]
+15.6 +9.8 68 +14 +15 1007.5 949.1
З 5 н/о н/о +15.2 +10.1 72 +14 +14 1008.1 949.6
СЗ 5 16 км 8/6 300 м
[Cu Sc Ac As Ci fib]
+17.0 +10.9 67 +16 +18 1007.6 949.5
СЗ 5 н/о н/о +15.3 +12.0 81 +14 +14 1008.4 950.0
СЗ 6 н/о в посл. час осадки н/о +14.3 +11.1 81 +12 +12 1009.5 950.8
СЗ 4 13 км {дождь} 9/8 300 м
[Cu Sc Ac As]
+13.7 +10.9 83 +12 +12 1010.3 951.4 +18.2 0.0
З 4 н/о в посл. час осадки н/о +12.8 +11.3 91 +11 +11 1011.1 952.0
З 4 н/о осадки н/о +12.3 +11.0 92 +10 +10 1012.0 952.7
СЗ 4 16 км {дождь} 6/5 300 м
[Cu Sc Ac As]
+12.0 +10.5 91 +10 +10 1012.9 953.5 0.8
СЗ 3 н/о н/о +12.2 +10.1 87 +11 +11 1013.2 953.8
СЗ 6 н/о н/о +12.0 +10.1 88 +9 +9 1013.6 954.2
СЗ 4 20 км {дождь} 3/3 300 м
[Sc Ac As]
+11.3 +9.3 87 +9 +9 1013.9 954.3
З 3 н/о н/о +11.5 +10.1 91 +10 +10 1013.7 954.2
СЗ 3 н/о осадки н/о +11.3 +10.4 94 +10 +10 1013.9 954.3
З 3 10 км {дождь, туман} 9/9 300 м
[Sc Ac As]
+11.3 +10.4 94 +10 +10 1013.9 954.3 0.3
СЗ 2 н/о в посл. час осадки н/о +11.1 +9.8 92 +10 +10 1013.9 954.3
З 2 н/о в посл. час осадки н/о +11.0 +10.2 95 +10 +10 1014.3 954.6
С 2 22 км {дождь, морось} 3/1 600 м
[Sc Ac lent Cs]
+12.2 +9.9 86 +12 +13 1014.0 954.6 +10.8 0.3 1.5
З 2 25 км 1/1 600 м
[Sc Ac lent Cc]
+13.5 +9.7 78 +13 +17 1014.1 954.9
З 2 н/о н/о +15.6 +9.9 69 +16 +16 1013.7 955.0
СЗ 4 26 км 5/5 600 м
[Cu Sc]
+16.0 +9.5 65 +15 +19 1013.5 954.9
СЗ 2 н/о н/о +17.9 +9.8 59 +18 +18 1012.9 954.7
В 2 н/о н/о +19.5 +10.6 56 +21 +21 комфорт 1012.4 954.5
СВ 3 30 км 3/3 1000 м
[Cu hum]
+20.8 +10.8 53 +23 +36 комфорт 1011.7 954.1
З 2 35 км 3/3 1000 м
[Cu Sc]
+21.8 +11.6 52 +24 +37 комфорт 1011.2 953.8
СВ 5 н/о н/о +21.5 +12.7 57 +24 +24 комфорт 1010.9 953.5
СВ 6 35 км 4/4 1000 м
[Sc]
+20.9 +12.8 60 +23 +27 комфорт 1010.9 953.4
СВ 7 н/о н/о +20.2 +13.2 64 +22 +22 комфорт 1010.8 953.2
СВ 6 н/о н/о +19.1 +12.9 67 +20 +20 1010.8 953.0
СВ 6 25 км 3/3 300 м
[St]
+17.1 +12.6 75 +16 +17 1011.6 953.3 +22.0
СВ 5 н/о н/о +15.1 +12.2 83 +14 +14 1012.6 953.9
С 5 н/о н/о +13.8 +12.0 89 +12 +12 1013.5 954.5
СВ 4 15 км 8/8 600 м
[Sc]
+13.5 +12.1 91 +12 +12 1014.1 955.0
СВ 4 н/о н/о +13.6 +12.2 91 +12 +12 1014.2 955.1
СВ 3 н/о н/о +13.0 +11.7 92 +12 +12 1014.1 954.9
С 2 12 км 10/10 300 м
[St]
+13.2 +12.3 94 +12 +12 1014.0 954.8
В 1 н/о н/о +13.4 +12.5 94 +13 +13 1013.6 954.5
СВ 2 н/о н/о +13.3 +12.2 93 +12 +12 1013.1 954.0
СВ 2 н/о н/о +13.4 +12.3 93 +13 +13 1012.7 953.6
В 1 н/о н/о +13.5 +12.1 91 +14 +14 1012.1 953.1
В 1 н/о н/о +12.2 +10.6 90 +12 +12 1012.3 953.0
СЗ 1 15 км 8/6 300 м
[St Ci fib]
+13.7 +11.6 87 +14 +14 1012.3 953.3 +12.2
ЮВ 1 20 км 8/5 600 м
[Sc Ac cast Ci fib]
+15.6 +11.6 77 +17 +19 1011.7 953.1
штиль 0 н/о н/о +17.1 +11.5 70 +17 +17 1011.5 953.2
В 1 20 км 9/6 600 м
[Sc Ac trans Ci fib]
+17.0 +12.2 73 +18 +21 1011.1 952.8
С 2 н/о н/о +18.8 +12.7 68 +20 +20 1010.7 952.8
СВ 2 н/о н/о +19.6 +12.7 64 +22 +22 комфорт 1010.2 952.5
СВ 5 20 км 9/6 600 м
[Cu Sc Ac trans Ci fib]
+20.0 +13.9 68 +22 +24 комфорт 1009.3 951.8
С 6 20 км 9/6 600 м
[Cu Sc Ac As Ci fib]
+17.8 +12.8 73 +17 +19 1009.7 951.7
С 7 н/о н/о +17.7 +12.8 73 +17 +17 1009.2 951.2
С 6 20 км 10/8 600 м
[Cu Sc Ac cuf]
+16.1 +12.6 80 +15 +15 1009.2 950.9
С 6 н/о н/о +14.9 +12.2 84 +13 +13 1009.6 951.0
С 4 н/о осадки н/о +14.3 +12.7 90 +13 +13 1010.2 951.5
С 4 8000 м дождь {гроза} 10/10 300 м
[Frnb Ns]
+13.6 +12.8 95 +12 +12 1009.9 951.1 +20.1 3
СВ 4 н/о осадки н/о +13.0 +12.5 97 +11 +11 1010.4 951.4
СВ 2 н/о осадки н/о +12.8 +12.5 98 +12 +12 1010.8 951.7
С 2 10 км слаб. дождь 10/8 300 м
[Frnb As op]
+12.7 +12.2 97 +12 +12 1010.6 951.5 7
штиль 0 н/о в посл. час осадки н/о +12.9 +12.4 97 +12 +12 1010.7 951.7
СВ 2 н/о в посл. час осадки н/о +12.8 +12.1 96 +12 +12 1010.9 951.8
СВ 2 10 км 10/8 300 м
[Cu Sc As op]
+12.7 +12.2 97 +12 +12 1010.9 951.8 0.0
С 3 н/о н/о +12.2 +10.9 92 +10 +10 1011.0 951.8
СЗ 1 н/о н/о +11.9 +10.8 93 +12 +12 1011.2 951.9
Местоположение метеостанции Витория-Гастейс (Испания): широта 42.88 долгота -2.72 высота над уровнем моря 510 м.
В архиве по умолчанию представлена погода в Витория-Гастейсе за последнюю неделю. Архивные данные за месяц целиком и за предыдущие месяцы, начиная с января 2011 года, Вы можете получить, выбрав интересующий диапазон дат из раскрывающегося списка и нажав кнопку "Найти!".
*Определитесь, кто Вы:
Внимание! Время в таблицах - всемирное. Для получения местного времени необходимо прибавить поправку, которая равна 1 ч.
Смотрите также архив погоды в соседних городах и на ближайших метеорологических станциях:
Партнеры нашего сайта:      
Пояснения к столбцам:
  • Ветер - указаны скорость ветра в м/с - средняя за 10 мин, порывы в срок и между сроками (в фигурных скобках) и направление, откуда дует ветер: С - северный,
  • СВ - северо-восточный, В - восточный, ЮВ - юго-восточный, Ю - южный, ЮЗ - юго-западный, З - западный, СЗ - северо-западный.
  • Видимость - горизонтальная дальность видимости в метрах или километрах. При видимости от 1 до 10 км при отсутствии осадков обычно наблюдается дымка, при ухудшении видимости до 1 км и менее - туман. В сухую погоду видимость может ухудшаться дымом, пылью или мглою.
  • Явления - указаны атмосферные явления, наблюдавшиеся в срок или в последний час перед сроком; фигурными скобками обозначены явления, наблюдавшиеся между сроками (за 1-3 часа до срока); квадратными скобками обозначены град или гололедные отложения с указанием их диаметра в мм.
  • Облачность - указаны через наклонную черту общая и нижняя облачность в баллах и высота нижней границы облаков в метрах; квадратными скобками обозначены формы облаков: Ci - перистые, Cs - перисто-слоистые, Cc - перисто-кучевые, Ac - высококучевые, As - высокослоистые, Sc - слоисто-кучевые, Ns - слоисто-дождевые, Cu - кучевые, Cb - кучево-дождевые. Подробнее классификацию облаков см. в Атласе облаков (PDF).
  • T - Температура воздуха - температура, измеренная на высоте 2 м над землей.
  • Td - Температура точки росы - температура, при понижении до которой содержащийся в воздухе водяной пар достигнет насыщения.
  • f - Относительная влажность воздуха - влажноcть воздуха, измеренная на высоте 2 м над землей.
  • Te - Эффективная температура - температура, которую ощущает одетый по сезону человек в тени. Характеристика душности погоды. При расчете учитывается влияние влажности воздуха и скорости ветра на теплоощущения человека.
  • Tes - Эффективная температура на солнце - температура, которую ощущает человек, с поправкой на солнечный нагрев. Характеристика знойности погоды. Зависит от высоты солнца над горизонтом, облачности и скорости ветра. Ночью, в пасмурную погоду, а также при ветре 12 м/с и более поправка равна нулю.
  • P - Атмосферное давление - приведенное к уровню моря атмосферное давление.
  • Po - Атмосферное давление - измеренное на уровне метеостанции атмосферное давление.
  • Tmin - Минимальная температура - минимум температуры воздуха на высоте 2 м над землей.
  • Tmax - Максимальная температура - максимум температуры воздуха на высоте 2 м над землей.
  • R - Количество осадков - Количество выпавших осадков за период времени, мм. При наведении курсора мыши на число - период времени, за который выпало указанное количество осадков.
  • R24 - Количество осадков - Количество выпавших осадков за 24 часа, мм.
  • S - Снежный покров - Высота снежного покрова, см. При наведении курсора мыши на число - состояние снежного покрова и степень покрытия местности в баллах.